Estherville, IA

5:59 PM CDT on August 29, 2016 (GMT -0500)
Estherville Municipal

Weather History for KEST - January, 2012

Change the Weather History Date:

Monday, January 23, 2012

  Actual Average Record
Temperature  
Mean Temperature 23 °F 16 °F  
Max Temperature 25 °F 25 °F 52 °F (1989)
Min Temperature 21 °F 7 °F -25 °F (1963)
Degree Days  
Heating Degree Days 42 49  
Month to date heating degree days 995 1140  
Since 1 July heating degree days 3681 4283  
Cooling Degree Days 0 0  
Month to date cooling degree days 0 0  
Year to date cooling degree days 0 0  
Moisture  
Dew Point 20 °F    
Average Humidity 89    
Maximum Humidity 96    
Minimum Humidity 81    
Precipitation  
Precipitation 0.01 in 0.03 in 0.40 in (1969)
Month to date precipitation 0.19 0.30  
Year to date precipitation 0.19  
Sea Level Pressure  
Sea Level Pressure 29.69 in    
Wind  
Wind Speed 19 mph (NW)    
Max Wind Speed 28 mph    
Max Gust Speed 32 mph    
Visibility 4 miles    
Events Fog , Snow    
T = Trace of Precipitation, MM = Missing Value Source: NWS Daily Summary

Daily Weather History Graph

Daily Weather History Graph

Search for Another Location

Airport or City:

Trip Planner

Search our weather history database for the weather conditions in past years. The results will help you decide how hot, cold, wet, or windy it might be!

Date:

Astronomy

Jan. 23, 2012 Rise Set
Actual Time 7:43 AM CST 5:18 PM CST
Civil Twilight 7:12 AM CST 5:49 PM CST
Nautical Twilight 6:37 AM CST 6:24 PM CST
Astronomical Twilight 6:04 AM CST 6:57 PM CST
Moon 7:38 AM CST (1/23) 6:09 PM CST (1/23)
Length of Visible Light 10h 36m
Length of Day
9h 34m
New Moon, 0% of the Moon is Illuminated
Jan 23
New Moon
Jan 30
First Quarter
Feb 7
Full
Feb 14
Last Quarter
Feb 21
New

Hourly Weather History & Observations

Time (CST) Temp. Windchill Dew Point Humidity Pressure Visibility Wind Dir Wind Speed Gust Speed Precip Events Conditions
12:25 AM 24.8 °F 10.3 °F 21.2 °F 86% 29.47 in 8.0 mi NNW 20.7 mph - N/A   Overcast
12:52 AM 25.0 °F 10.9 °F 21.9 °F 88% 29.52 in 2.0 mi NNW 19.6 mph - 0.00 in Snow Light Snow
1:02 AM 24.8 °F 10.3 °F 21.2 °F 86% 29.48 in 1.8 mi NNW 20.7 mph - 0.00 in Snow Light Snow
1:18 AM 24.8 °F 10.3 °F 21.2 °F 86% 29.49 in 0.8 mi NNW 20.7 mph - 0.01 in Snow Light Snow
1:31 AM 24.8 °F 11.5 °F 21.2 °F 86% 29.49 in 0.8 mi NNW 17.3 mph 24.2 mph 0.01 in Snow Light Snow
1:52 AM 24.1 °F 11.0 °F 21.9 °F 91% 29.54 in 1.0 mi NNW 16.1 mph - 0.01 in Snow Light Snow
2:09 AM 24.8 °F 11.1 °F 21.2 °F 86% 29.51 in 0.8 mi NW 18.4 mph - 0.00 in Snow Light Snow
2:52 AM 24.1 °F 9.8 °F 21.0 °F 88% 29.57 in 0.5 mi NNW 19.6 mph - 0.00 in Fog , Snow Snow
3:03 AM 24.8 °F 10.7 °F 21.2 °F 86% 29.53 in 0.8 mi NW 19.6 mph - 0.00 in Snow Light Snow
3:18 AM 24.8 °F 10.3 °F 21.2 °F 86% 29.53 in 1.0 mi NW 20.7 mph - 0.00 in Snow Light Snow
3:27 AM 23.0 °F 8.0 °F 21.2 °F 93% 29.53 in 1.0 mi NW 20.7 mph - 0.00 in Snow Light Snow
3:52 AM 23.0 °F 7.6 °F 21.0 °F 92% 29.59 in 1.2 mi NW 21.9 mph - 0.00 in Snow Light Snow
4:00 AM 23.0 °F 8.0 °F 19.4 °F 86% 29.55 in 1.0 mi NW 20.7 mph - 0.00 in Snow Light Snow
4:27 AM 23.0 °F 8.7 °F 21.2 °F 93% 29.55 in 1.5 mi NW 18.4 mph - 0.00 in Snow Light Snow
4:35 AM 23.0 °F 8.3 °F 21.2 °F 93% 29.56 in 1.0 mi NW 19.6 mph - 0.00 in Snow Light Snow
4:47 AM 23.0 °F 8.3 °F 19.4 °F 86% 29.56 in 1.5 mi NW 19.6 mph - 0.00 in Snow Light Snow
4:52 AM 23.0 °F 8.0 °F 19.9 °F 88% 29.61 in 2.5 mi NW 20.7 mph - 0.00 in Snow Light Snow
5:03 AM 23.0 °F 8.7 °F 21.2 °F 93% 29.56 in 1.8 mi NW 18.4 mph - 0.00 in Snow Light Snow
5:10 AM 23.0 °F 8.0 °F 19.4 °F 86% 29.57 in 3.0 mi NW 20.7 mph 25.3 mph 0.00 in Snow Light Snow
5:20 AM 23.0 °F 8.3 °F 19.4 °F 86% 29.57 in 1.8 mi NW 19.6 mph - 0.00 in Snow Light Snow
5:30 AM 23.0 °F 8.7 °F 21.2 °F 93% 29.58 in 1.2 mi NW 18.4 mph - 0.00 in Snow Light Snow
5:52 AM 23.0 °F 8.7 °F 21.0 °F 92% 29.64 in 1.2 mi NW 18.4 mph - 0.00 in Snow Light Snow
6:31 AM 24.8 °F 11.1 °F 21.2 °F 86% 29.60 in 1.0 mi NW 18.4 mph - 0.00 in Snow Light Snow
6:41 AM 24.8 °F 11.5 °F 21.2 °F 86% 29.60 in 1.2 mi NW 17.3 mph - 0.00 in Snow Light Snow
6:52 AM 24.1 °F 10.6 °F 21.0 °F 88% 29.65 in 2.0 mi NW 17.3 mph - 0.00 in Snow Light Snow
7:04 AM 24.8 °F 10.7 °F 21.2 °F 86% 29.61 in 2.5 mi NW 19.6 mph - 0.00 in Snow Light Snow
7:18 AM 24.8 °F 11.5 °F 21.2 °F 86% 29.61 in 2.0 mi NW 17.3 mph - 0.00 in Snow Light Snow
7:38 AM 24.8 °F 11.9 °F 21.2 °F 86% 29.62 in 3.0 mi NW 16.1 mph - 0.00 in Snow Light Snow
7:52 AM 24.1 °F 9.4 °F 19.9 °F 84% 29.68 in 2.5 mi NW 20.7 mph - 0.00 in   Overcast
8:01 AM 24.8 °F 10.3 °F 19.4 °F 80% 29.63 in 3.0 mi NW 20.7 mph - N/A   Overcast
8:25 AM 23.0 °F 8.0 °F 19.4 °F 86% 29.64 in 4.0 mi NW 20.7 mph - N/A   Overcast
8:52 AM 24.1 °F 9.8 °F 19.9 °F 84% 29.70 in 4.0 mi NW 19.6 mph - N/A   Overcast
9:52 AM 24.1 °F 9.8 °F 21.0 °F 88% 29.73 in 4.0 mi NW 19.6 mph - N/A   Overcast
10:05 AM 24.8 °F 9.6 °F 21.2 °F 86% 29.69 in 2.5 mi NW 23.0 mph - N/A   Overcast
10:33 AM 24.8 °F 10.3 °F 21.2 °F 86% 29.71 in 3.0 mi NW 20.7 mph - N/A   Overcast
10:52 AM 25.0 °F 10.9 °F 21.9 °F 88% 29.76 in 4.0 mi NW 19.6 mph - N/A   Overcast
11:06 AM 24.8 °F 10.7 °F 21.2 °F 86% 29.72 in 4.0 mi NW 19.6 mph - N/A   Overcast
11:52 AM 24.1 °F 9.4 °F 21.0 °F 88% 29.78 in 6.0 mi NW 20.7 mph - N/A   Overcast
12:34 PM 24.8 °F 9.6 °F 19.4 °F 80% 29.73 in 2.5 mi WNW 23.0 mph - N/A   Overcast
12:52 PM 24.1 °F 9.4 °F 19.9 °F 84% 29.78 in 2.5 mi WNW 20.7 mph 29.9 mph N/A   Overcast
1:00 PM 24.8 °F 9.0 °F 19.4 °F 80% 29.73 in 3.0 mi WNW 25.3 mph 28.8 mph N/A   Overcast
1:09 PM 23.0 °F 7.2 °F 19.4 °F 86% 29.73 in 2.5 mi WNW 23.0 mph - N/A   Overcast
1:20 PM 23.0 °F 6.9 °F 19.4 °F 86% 29.73 in 3.0 mi WNW 24.2 mph - N/A   Overcast
1:28 PM 23.0 °F 6.9 °F 19.4 °F 86% 29.73 in 1.8 mi WNW 24.2 mph - N/A   Overcast
1:39 PM 23.0 °F 8.3 °F 19.4 °F 86% 29.74 in 2.5 mi WNW 19.6 mph 28.8 mph N/A   Overcast
1:52 PM 23.0 °F 7.2 °F 19.9 °F 88% 29.80 in 2.5 mi WNW 23.0 mph 31.1 mph N/A   Overcast
2:23 PM 24.8 °F 11.1 °F 19.4 °F 80% 29.76 in 3.0 mi WNW 18.4 mph 28.8 mph N/A   Haze
2:52 PM 23.0 °F 7.6 °F 19.0 °F 85% 29.83 in 3.0 mi WNW 21.9 mph - N/A   Overcast
3:52 PM 23.0 °F 8.3 °F 19.0 °F 85% 29.86 in 4.0 mi WNW 19.6 mph - N/A   Overcast
4:52 PM 21.9 °F 6.5 °F 18.0 °F 85% 29.88 in 6.0 mi WNW 20.7 mph - N/A   Overcast
4:59 PM 21.2 °F 6.0 °F 17.6 °F 86% 29.84 in 7.0 mi WNW 19.6 mph - N/A   Overcast
5:52 PM 21.9 °F 6.9 °F 17.1 °F 82% 29.93 in 9.0 mi WNW 19.6 mph 26.5 mph N/A   Overcast
6:13 PM 21.2 °F 5.6 °F 17.6 °F 86% 29.88 in 9.0 mi WNW 20.7 mph - N/A   Overcast
6:43 PM 21.2 °F 6.4 °F 17.6 °F 86% 29.89 in 9.0 mi WNW 18.4 mph - N/A   Overcast
6:52 PM 21.9 °F 6.9 °F 17.1 °F 82% 29.95 in 8.0 mi WNW 19.6 mph - N/A   Overcast
7:52 PM 21.0 °F 6.6 °F 17.1 °F 85% 29.97 in 8.0 mi WNW 17.3 mph - N/A   Overcast
8:52 PM 21.0 °F 6.6 °F 17.1 °F 85% 29.99 in 9.0 mi WNW 17.3 mph - N/A   Overcast
9:52 PM 21.0 °F 8.6 °F 17.1 °F 85% 30.01 in 9.0 mi WNW 12.7 mph - N/A   Overcast
10:52 PM 21.0 °F 9.3 °F 17.1 °F 85% 30.02 in 9.0 mi WNW 11.5 mph - N/A   Overcast
11:52 PM 21.0 °F 9.9 °F 17.1 °F 85% 30.04 in 9.0 mi WNW 10.4 mph - N/A   Overcast